GW6791 Weather Reports


time (UTC)temp
F
wind
direction
speed
knots
gust
knots
rain 1hr
in
rain 24hr
in
rain mn
in
humidity
%
barometer
mb
20260509000417 68 215 0.0 0.9 0.00 0.00 0.00 39 1046.7
20260508235910 67 180 0.0 0.9 0.00 0.00 0.00 39 1046.7
20260508235408 67 217 1.7 2.6 0.00 0.00 0.00 38 1046.7
20260508234905 67 156 0.9 1.7 0.00 0.00 0.00 39 1046.9
20260508234401 68 148 0.0 1.7 0.00 0.00 0.00 37 1047.0
20260508233900 68 162 0.9 2.6 0.00 0.00 0.00 37 1046.9
20260508233359 69 189 1.7 2.6 0.00 0.00 0.00 36 1046.6
20260508232855 69 208 0.0 0.9 0.00 0.00 0.00 36 1047.1
20260508232352 70 196 1.7 5.2 0.00 0.00 0.00 36 1047.0
20260508231850 70 187 3.5 6.1 0.00 0.00 0.00 35 1047.1
20260508231346 71 193 3.5 6.1 0.00 0.00 0.00 35 1047.0
20260508230843 71 232 1.7 2.6 0.00 0.00 0.00 35 1047.1
20260508230339 71 127 0.9 3.5 0.00 0.00 0.00 35 1046.9
20260508225837 71 187 1.7 2.6 0.00 0.00 0.00 33 1047.0
20260508225333 71 219 4.3 6.1 0.00 0.00 0.00 32 1046.9
20260508224832 71 165 0.9 6.1 0.00 0.00 0.00 34 1047.3
20260508224329 71 186 1.7 1.7 0.00 0.00 0.00 33 1047.1
20260508223826 71 144 1.7 2.6 0.00 0.00 0.00 34 1047.1
20260508223323 72 159 1.7 6.1 0.00 0.00 0.00 33 1047.0
20260508222821 72 172 0.0 1.7 0.00 0.00 0.00 36 1047.0
20260508222318 72 197 3.5 7.0 0.00 0.00 0.00 33 1046.9
20260508221815 72 224 1.7 6.1 0.00 0.00 0.00 33 1047.0
20260508221310 72 213 1.7 2.6 0.00 0.00 0.00 34 1047.0
20260508220807 72 171 1.7 3.5 0.00 0.00 0.00 34 1046.9
20260508220303 72 132 1.7 3.5 0.00 0.00 0.00 32 1047.1
20260508215800 72 177 5.2 6.1 0.00 0.00 0.00 32 1047.2
20260508215256 72 113 1.7 3.5 0.00 0.00 0.00 35 1047.0
20260508214754 72 152 2.6 3.5 0.00 0.00 0.00 32 1047.0
20260508214251 72 179 2.6 7.8 0.00 0.00 0.00 37 1047.0
20260508213747 73 222 5.2 7.8 0.00 0.00 0.00 34 1046.7
20260508213244 73 143 0.0 1.7 0.00 0.00 0.00 35 1046.6
20260508212740 73 166 2.6 5.2 0.00 0.00 0.00 33 1046.7
20260508212237 73 153 0.9 3.5 0.00 0.00 0.00 34 1046.5
20260508211733 74 221 3.5 9.6 0.00 0.00 0.00 32 1047.1
20260508211228 74 173 0.9 2.6 0.00 0.00 0.00 33 1047.1
20260508210726 74 149 0.9 1.7 0.00 0.00 0.00 37 1047.1
20260508210223 73 133 0.9 1.7 0.00 0.00 0.00 35 1047.3
20260508205720 73 205 1.7 5.2 0.00 0.00 0.00 33 1047.2
20260508205216 74 135 0.9 3.5 0.00 0.00 0.00 31 1047.5
20260508204712 73 132 0.9 2.6 0.00 0.00 0.00 38 1047.6
20260508204209 73 220 4.3 6.1 0.00 0.00 0.00 32 1047.6
20260508203705 73 153 2.6 6.1 0.00 0.00 0.00 33 1047.7
20260508203201 73 195 5.2 7.8 0.00 0.00 0.00 34 1047.8
20260508202657 72 228 1.7 1.7 0.00 0.00 0.00 33 1047.8
20260508202155 73 163 2.6 7.8 0.00 0.00 0.00 34 1048.1
20260508201652 73 192 1.7 2.6 0.00 0.00 0.00 34 1048.2
20260508201148 73 195 3.5 5.2 0.00 0.00 0.00 34 1048.2
20260508200645 73 150 0.9 3.5 0.00 0.00 0.00 35 1048.5
20260508200141 74 257 3.5 5.2 0.00 0.00 0.00 33 1048.4
20260508195638 73 235 0.9 1.7 0.00 0.00 0.00 38 1048.3
20260508195134 73 220 3.5 5.2 0.00 0.00 0.00 34 1048.2
20260508194631 73 158 1.7 7.0 0.00 0.00 0.00 37 1048.2
20260508194128 74 142 1.7 2.6 0.00 0.00 0.00 36 1047.9
20260508193625 73 108 0.9 0.9 0.00 0.00 0.00 36 1048.3
20260508193121 72 105 3.5 5.2 0.00 0.00 0.00 37 1048.3
20260508192618 72 171 1.7 3.5 0.00 0.00 0.00 35 1048.2
20260508192115 72 180 1.7 7.0 0.00 0.00 0.00 34 1048.5
20260508191612 72 182 4.3 8.7 0.00 0.00 0.00 35 1048.5
20260508191109 74 206 3.5 6.1 0.00 0.00 0.00 33 1048.4
20260508190606 73 231 1.7 1.7 0.00 0.00 0.00 35 1048.6
20260508185559 72 205 0.9 1.7 0.00 0.00 0.00 36 1048.7
20260508185057 72 151 1.7 6.1 0.00 0.00 0.00 35 1048.7
20260508184554 71 280 0.0 2.6 0.00 0.00 0.00 42 1048.7
20260508184051 71 224 0.9 3.5 0.00 0.00 0.00 37 1049.0
20260508183547 71 163 0.0 1.7 0.00 0.00 0.00 42 1049.0
20260508183044 71 183 0.9 3.5 0.00 0.00 0.00 39 1049.0
20260508182540 70 194 0.9 5.2 0.00 0.00 0.00 35 1049.1
20260508182038 71 187 3.5 7.0 0.00 0.00 0.00 37 1049.3
20260508181537 71 246 2.6 3.5 0.00 0.00 0.00 35 1049.3
20260508181036 71 209 1.7 2.6 0.00 0.00 0.00 37 1049.7
20260508180532 71 144 3.5 7.8 0.00 0.00 0.00 38 1049.7
20260508180028 69 145 1.7 8.7 0.00 0.00 0.00 38 1049.8
20260508175525 70 184 7.0 7.8 0.00 0.00 0.00 36 1050.0
20260508175022 70 111 0.9 6.1 0.00 0.00 0.00 42 1050.1
20260508174520 70 171 2.6 7.0 0.00 0.00 0.00 36 1050.2
20260508174017 70 192 3.5 6.1 0.00 0.00 0.00 36 1050.1
20260508173514 70 131 0.9 3.5 0.00 0.00 0.00 39 1050.2
20260508173010 68 277 0.9 5.2 0.00 0.00 0.00 40 1050.4
20260508172507 69 195 4.3 12.2 0.00 0.00 0.00 36 1050.5
20260508172003 69 215 7.0 7.8 0.00 0.00 0.00 38 1050.4
20260508171500 69 231 0.0 7.8 0.00 0.00 0.00 34 1050.9
20260508170956 69 281 5.2 6.1 0.00 0.00 0.00 37 1050.9
20260508170454 69 107 1.7 1.7 0.00 0.00 0.00 38 1050.9
20260508165950 69 241 5.2 7.0 0.00 0.00 0.00 40 1051.0
20260508165449 70 149 0.9 5.2 0.00 0.00 0.00 42 1051.1
20260508164944 71 96 1.7 2.6 0.00 0.00 0.00 37 1051.2
20260508164441 70 142 0.0 1.7 0.00 0.00 0.00 40 1051.6
20260508163938 69 155 0.9 2.6 0.00 0.00 0.00 41 1051.5
20260508163436 69 114 1.7 2.6 0.00 0.00 0.00 43 1051.5
20260508162931 69 222 7.8 8.7 0.00 0.00 0.00 43 1051.6
20260508162429 69 280 1.7 1.7 0.00 0.00 0.00 41 1051.6
20260508161926 69 164 1.7 2.6 0.00 0.00 0.00 41 1051.7
20260508161423 69 182 0.9 3.5 0.00 0.00 0.00 43 1051.8
20260508160920 68 155 1.7 2.6 0.00 0.00 0.00 45 1051.7
20260508160419 66 211 0.0 1.7 0.00 0.00 0.00 42 1051.8
20260508155915 67 232 5.2 7.8 0.00 0.00 0.00 40 1051.9
20260508155412 67 206 2.6 3.5 0.00 0.00 0.00 41 1051.9
20260508154909 66 213 3.5 5.2 0.00 0.00 0.00 42 1052.0
20260508154407 66 206 1.7 6.1 0.00 0.00 0.00 44 1052.3
20260508153903 67 209 1.7 3.5 0.00 0.00 0.00 40 1052.2
20260508153400 66 180 0.9 6.1 0.00 0.00 0.00 42 1052.4
20260508152856 65 203 1.7 6.1 0.00 0.00 0.00 44 1052.5
20260508152353 65 247 0.9 3.5 0.00 0.00 0.00 42 1052.6
20260508151849 65 229 2.6 5.2 0.00 0.00 0.00 44 1052.4
20260508151346 64 208 2.6 3.5 0.00 0.00 0.00 44 1052.3
20260508150842 64 209 3.5 6.1 0.00 0.00 0.00 45 1052.5
20260508150340 64 195 4.3 7.8 0.00 0.00 0.00 44 1052.6
20260508145835 64 224 7.0 8.7 0.00 0.00 0.00 45 1052.6
20260508145332 64 229 4.3 6.1 0.00 0.00 0.00 44 1052.6
20260508144829 64 203 4.3 6.1 0.00 0.00 0.00 42 1052.6
20260508144327 63 191 1.7 5.2 0.00 0.00 0.00 47 1052.6
20260508143824 63 199 1.7 3.5 0.00 0.00 0.00 45 1052.7
20260508143321 63 204 1.7 3.5 0.00 0.00 0.00 51 1052.5
20260508142818 62 193 3.5 6.1 0.00 0.00 0.00 49 1052.5
20260508142315 62 221 1.7 5.2 0.00 0.00 0.00 49 1052.4
20260508141811 61 220 2.6 5.2 0.00 0.00 0.00 49 1052.5
20260508141308 61 175 3.5 5.2 0.00 0.00 0.00 51 1052.5
20260508140805 60 228 1.7 5.2 0.00 0.00 0.00 51 1052.5
20260508140302 60 201 1.7 3.5 0.00 0.00 0.00 52 1052.6
20260508135758 60 213 0.9 3.5 0.00 0.00 0.00 51 1052.6
20260508135254 60 187 2.6 5.2 0.00 0.00 0.00 52 1052.5
20260508134750 59 197 1.7 2.6 0.00 0.00 0.00 53 1052.6
20260508134247 59 180 1.7 3.5 0.00 0.00 0.00 54 1052.7
20260508133744 58 231 0.0 1.7 0.00 0.00 0.00 56 1052.8
20260508133242 57 206 0.9 2.6 0.00 0.00 0.00 58 1052.7
20260508132739 57 201 1.7 3.5 0.00 0.00 0.00 56 1052.7
20260508132236 56 215 0.9 0.9 0.00 0.00 0.00 61 1052.6
20260508131732 56 200 0.9 1.7 0.00 0.00 0.00 58 1052.7
20260508131229 55 231 0.9 1.7 0.00 0.00 0.00 61 1052.5
20260508130725 54 190 0.9 2.6 0.00 0.00 0.00 59 1052.5
20260508130223 54 207 0.9 1.7 0.00 0.00 0.00 60 1052.6
20260508125718 54 218 0.9 2.6 0.00 0.00 0.00 60 1052.6
20260508125214 55 214 0.9 1.7 0.00 0.00 0.00 59 1052.4
20260508124713 54 213 0.9 0.9 0.00 0.00 0.00 61 1052.5
20260508124209 54 221 0.0 0.9 0.00 0.00 0.00 64 1052.5
20260508123708 53 185 0.0 0.9 0.00 0.00 0.00 63 1052.5
20260508123206 52 178 0.0 1.7 0.00 0.00 0.00 66 1052.6
20260508122701 51 193 0.9 0.9 0.00 0.00 0.00 66 1052.6
20260508122158 50 214 0.9 1.7 0.00 0.00 0.00 67 1052.5
20260508121656 49 143 0.0 1.7 0.00 0.00 0.00 68 1052.3
20260508121154 48 161 0.9 1.7 0.00 0.00 0.00 70 1052.4
20260508120651 47 145 0.9 0.9 0.00 0.00 0.00 72 1052.5
20260508120150 46 137 0.0 0.9 0.00 0.00 0.00 76 1052.4
20260508115647 45 226 0.0 0.9 0.00 0.00 0.00 79 1052.5
20260508115144 44 121 0.9 1.7 0.00 0.00 0.00 88 1052.4
20260508114641 43 95 0.9 1.7 0.00 0.00 0.00 87 1052.3
20260508114136 42 96 1.7 1.7 0.00 0.00 0.00 88 1052.2
20260508113634 42 101 0.9 0.9 0.00 0.00 0.00 89 1052.1
20260508113133 40 100 0.9 0.9 0.00 0.00 0.00 89 1052.2
20260508112628 40 101 0.9 0.9 0.00 0.00 0.00 90 1052.0
20260508112125 40 100 0.9 1.7 0.00 0.00 0.00 89 1051.8
20260508111622 40 100 0.9 1.7 0.00 0.00 0.00 89 1051.8
20260508111119 39 99 0.9 0.9 0.00 0.00 0.00 88 1051.9
20260508110617 39 99 0.9 0.9 0.00 0.00 0.00 88 1051.9
20260508110114 38 99 0.9 0.9 0.00 0.00 0.00 89 1051.8
20260508105613 38 99 0.9 0.9 0.00 0.00 0.00 89 1051.7
20260508105111 39 99 0.9 0.9 0.00 0.00 0.00 89 1051.7
20260508104608 39 100 0.9 0.9 0.00 0.00 0.00 89 1051.8
20260508104105 39 99 0.9 0.9 0.00 0.00 0.00 88 1051.6
20260508103602 39 99 0.9 0.9 0.00 0.00 0.00 88 1051.7
20260508103059 39 99 0.9 0.9 0.00 0.00 0.00 88 1051.4
20260508102557 39 99 0.9 0.9 0.00 0.00 0.00 88 1051.5
20260508102054 38 98 1.7 1.7 0.00 0.00 0.00 90 1051.5
20260508101552 38 99 0.9 0.9 0.00 0.00 0.00 91 1051.4
20260508101048 38 99 0.9 0.9 0.00 0.00 0.00 91 1051.5
20260508100547 37 99 0.9 0.9 0.00 0.00 0.00 91 1051.3
20260508100043 37 98 0.9 0.9 0.00 0.00 0.00 91 1051.2
20260508095541 37 98 0.9 0.9 0.00 0.00 0.00 91 1051.4
20260508095037 37 99 0.9 0.9 0.00 0.00 0.00 91 1051.4
20260508094534 37 99 0.9 0.9 0.00 0.00 0.00 91 1051.5
20260508094031 37 99 0.9 0.9 0.00 0.00 0.00 91 1051.6
20260508093528 37 100 0.9 0.9 0.00 0.00 0.00 91 1051.6
20260508093026 37 100 0.9 0.9 0.00 0.00 0.00 90 1051.6
20260508092523 38 103 0.9 1.7 0.00 0.00 0.00 91 1051.5
20260508092022 38 105 1.7 1.7 0.00 0.00 0.00 90 1051.6
20260508091519 38 93 0.9 0.9 0.00 0.00 0.00 90 1051.6
20260508091015 38 93 0.9 0.9 0.00 0.00 0.00 90 1051.5
20260508090514 38 93 0.9 1.7 0.00 0.00 0.00 90 1051.5
20260508090010 38 93 0.9 1.7 0.00 0.00 0.00 90 1051.5
20260508085506 39 93 0.9 1.7 0.00 0.00 0.00 90 1051.5
20260508085003 39 93 0.9 0.9 0.00 0.00 0.00 90 1051.8
20260508084500 38 93 0.9 1.7 0.00 0.00 0.00 91 1051.6
20260508083958 38 93 0.9 1.7 0.00 0.00 0.00 91 1051.5
20260508083455 38 92 0.9 1.7 0.00 0.00 0.00 91 1051.7
20260508082950 38 94 0.9 1.7 0.00 0.00 0.00 91 1051.7
20260508082447 38 91 1.7 1.7 0.00 0.00 0.00 91 1051.7
20260508081945 38 91 0.9 1.7 0.00 0.00 0.00 91 1051.8
20260508081442 38 97 1.7 1.7 0.00 0.00 0.00 90 1051.6
20260508080938 38 96 0.9 0.9 0.00 0.00 0.00 90 1051.6
20260508080436 38 97 0.9 0.9 0.00 0.00 0.00 90 1051.8
20260508075932 39 98 0.9 0.9 0.00 0.00 0.00 89 1051.8
20260508075429 39 99 0.9 1.7 0.00 0.00 0.00 89 1051.5
20260508074927 39 95 0.9 0.9 0.00 0.00 0.00 88 1051.6
20260508074424 41 92 0.9 1.7 0.00 0.00 0.00 85 1051.6
20260508073921 41 117 0.9 0.9 0.00 0.00 0.00 87 1051.7
20260508073419 40 112 0.9 0.9 0.00 0.00 0.00 89 1051.5
20260508072916 40 107 1.7 1.7 0.00 0.00 0.00 88 1051.5
20260508072412 40 111 0.9 1.7 0.00 0.00 0.00 88 1051.7
20260508071909 40 109 0.9 1.7 0.00 0.00 0.00 89 1051.4
20260508071407 40 107 1.7 1.7 0.00 0.00 0.00 88 1051.8
20260508070904 40 111 1.7 1.7 0.00 0.00 0.00 88 1051.7
20260508070402 40 112 1.7 2.6 0.00 0.00 0.00 86 1051.7
20260508065900 41 107 1.7 1.7 0.00 0.00 0.00 85 1051.8
20260508065358 41 111 0.9 0.9 0.00 0.00 0.00 85 1051.7
20260508064856 41 112 0.9 0.9 0.00 0.00 0.00 84 1051.6
20260508064353 42 102 1.7 1.7 0.00 0.00 0.00 83 1051.6
20260508063851 42 113 0.9 1.7 0.00 0.00 0.00 79 1051.8
20260508063348 44 123 0.9 0.9 0.00 0.00 0.00 76 1051.8
20260508062845 44 219 0.0 0.0 0.00 0.00 0.00 74 1051.9
20260508062343 44 229 1.7 1.7 0.00 0.00 0.00 75 1051.6
20260508061839 43 231 1.7 1.7 0.00 0.00 0.00 77 1051.7
20260508061337 42 268 0.9 1.7 0.00 0.00 0.00 79 1051.7
20260508060833 42 266 0.9 0.9 0.00 0.00 0.00 82 1051.9
20260508060331 42 257 0.9 1.7 0.00 0.00 0.00 84 1052.0
20260508055826 41 105 0.9 0.9 0.00 0.00 0.00 85 1051.9
20260508055324 42 109 1.7 1.7 0.00 0.00 0.00 82 1051.8
20260508054820 42 142 0.0 0.9 0.00 0.00 0.00 82 1052.0
20260508054318 42 251 0.0 0.0 0.00 0.00 0.00 82 1052.1
20260508053814 43 256 0.9 0.9 0.00 0.00 0.00 82 1051.9
20260508053312 42 246 0.9 0.9 0.00 0.00 0.00 84 1052.1
20260508052809 42 104 0.0 0.9 0.00 0.00 0.00 86 1052.0
20260508052307 41 103 0.9 0.9 0.00 0.00 0.00 86 1052.1
20260508051802 41 106 0.9 0.9 0.00 0.00 0.00 85 1052.1
20260508051257 42 110 0.9 1.7 0.00 0.00 0.00 84 1052.0
20260508050754 42 114 1.7 1.7 0.00 0.00 0.00 83 1052.1
20260508050252 42 116 0.0 0.9 0.00 0.00 0.00 84 1052.1
20260508045747 43 116 0.0 0.9 0.00 0.00 0.00 81 1052.0
20260508045245 43 116 0.0 0.0 0.00 0.00 0.00 80 1052.0
20260508044742 43 117 0.0 0.9 0.00 0.00 0.00 81 1051.9
20260508044239 43 116 1.7 1.7 0.00 0.00 0.00 81 1051.9
20260508043735 44 106 1.7 1.7 0.00 0.00 0.00 79 1051.8
20260508043233 44 109 0.0 0.0 0.00 0.00 0.00 78 1051.8
20260508042729 44 108 0.9 0.9 0.00 0.00 0.00 78 1052.0
20260508042227 45 109 0.0 0.0 0.00 0.00 0.00 76 1051.8
20260508041723 46 109 0.0 0.0 0.00 0.00 0.00 70 1052.0
20260508041220 45 109 0.9 0.9 0.00 0.00 0.00 75 1052.0
20260508040716 46 106 1.7 1.7 0.00 0.00 0.00 75 1051.9
20260508040214 45 99 0.9 1.7 0.00 0.00 0.00 74 1051.8
20260508035711 45 98 0.0 0.9 0.00 0.00 0.00 76 1051.9
20260508035209 45 98 0.0 0.0 0.00 0.00 0.00 74 1051.8
20260508034704 45 98 1.7 1.7 0.00 0.00 0.00 75 1051.9
20260508034202 47 98 1.7 1.7 0.00 0.00 0.00 70 1051.9
20260508033659 48 109 0.9 0.9 0.00 0.00 0.00 65 1052.0
20260508033157 47 109 0.9 0.9 0.00 0.00 0.00 63 1051.8
20260508032654 47 109 0.9 0.9 0.00 0.00 0.00 68 1051.9
20260508032151 47 109 0.9 0.9 0.00 0.00 0.00 68 1051.9
20260508031648 47 110 0.9 0.9 0.00 0.00 0.00 68 1052.0
20260508031144 47 108 1.7 1.7 0.00 0.00 0.00 69 1051.9
20260508030641 47 108 1.7 1.7 0.00 0.00 0.00 68 1052.0
20260508030139 48 109 1.7 1.7 0.00 0.00 0.00 65 1052.0
20260508025635 49 98 0.9 0.9 0.00 0.00 0.00 61 1052.0
20260508025132 50 98 0.9 0.9 0.00 0.00 0.00 61 1052.1
20260508024627 51 99 0.0 0.9 0.00 0.00 0.00 54 1052.0
20260508024125 52 99 0.0 0.9 0.00 0.00 0.00 53 1051.9
20260508023621 51 99 0.0 0.0 0.00 0.00 0.00 48 1051.8
20260508023119 51 99 0.0 0.9 0.00 0.00 0.00 55 1051.8
20260508022614 50 99 0.9 0.9 0.00 0.00 0.00 54 1051.9
20260508022112 51 98 0.9 0.9 0.00 0.00 0.00 54 1051.7
20260508021607 52 147 0.9 0.9 0.00 0.00 0.00 52 1051.5
20260508021104 52 257 0.0 0.0 0.00 0.00 0.00 48 1051.8
20260508020601 51 257 0.0 0.0 0.00 0.00 0.00 49 1051.7
20260508020059 51 257 0.0 0.0 0.00 0.00 0.00 50 1051.5
20260508015556 52 257 0.0 0.0 0.00 0.00 0.00 49 1051.6
20260508015053 53 257 0.0 0.0 0.00 0.00 0.00 48 1051.5
20260508014549 53 257 0.0 0.0 0.00 0.00 0.00 47 1051.3
20260508014046 54 257 0.0 0.9 0.00 0.00 0.00 46 1051.3
20260508013542 54 257 0.0 0.9 0.00 0.00 0.00 45 1051.4
20260508013039 54 257 0.9 0.9 0.00 0.00 0.00 45 1051.1
20260508012536 54 253 0.9 0.9 0.00 0.00 0.00 45 1051.1
20260508012034 54 258 0.9 0.9 0.00 0.00 0.00 45 1051.1
20260508011532 54 258 0.9 0.9 0.00 0.00 0.00 45 1051.1
20260508011029 55 257 0.9 0.9 0.00 0.00 0.00 45 1051.1
20260508010525 55 253 0.9 0.9 0.00 0.00 0.00 45 1051.1
20260508010023 55 250 0.9 0.9 0.00 0.00 0.00 45 1051.1
20260508005519 55 250 0.9 0.9 0.00 0.00 0.00 44 1050.8
20260508005016 55 245 0.9 0.9 0.00 0.00 0.00 44 1050.7
20260508004513 56 240 0.9 0.9 0.00 0.00 0.00 44 1050.9
20260508004010 56 236 0.9 0.9 0.00 0.00 0.00 43 1050.8
20260508003506 56 248 0.9 1.7 0.00 0.00 0.00 42 1050.4
20260508003003 57 252 0.9 0.9 0.00 0.00 0.00 42 1050.5
20260508002459 57 247 0.9 1.7 0.00 0.00 0.00 42 1050.7
20260508001956 57 259 0.9 1.7 0.00 0.00 0.00 41 1050.5
20260508001452 58 253 0.9 1.7 0.00 0.00 0.00 42 1050.3
20260508000949 59 266 1.7 2.6 0.00 0.00 0.00 40 1050.3